Mayport Coastal Sciences Middle FL US WEATHERSTEM current weather conditions

sailwx.info

Wind from 298 at 8 knots gusting 12

Air temperature 12.8° C
Dewpoint 6.0° C

Last reported at 2020-Jan-25 14:00 UTC.
Time now 2020-Jan-25 15:15 UTC

Location: N 30°22' W 081°25'.
View on Google Maps.

See reports from other nearby stations

  
Tides and Currents Weather Stations Pressure Air Temp Water Temp Dewpoint Dewpoint Depression Visibility Wind Speed Wind Dir Waves Ship Positions
date/time (UTC)wind fromknots sea level pressurealtimeterstation pressurevisibilityair tempwater tempwave heightnotes
2020-Jan-25 14:00 298 8 gusting 12 12.8
2020-Jan-25 13:50 277 6 gusting 10 12.6
2020-Jan-25 13:40 269 0 gusting 7 12.3
2020-Jan-25 13:30 263 2 gusting 7 12.0
2020-Jan-25 13:20 268 2 gusting 5 11.8
2020-Jan-25 13:10 263 1 gusting 5 11.6
2020-Jan-25 13:00 266 3 gusting 6 11.4
2020-Jan-25 12:50 264 1 gusting 3 11.4
2020-Jan-25 12:40 263 1 gusting 3 11.4
2020-Jan-25 12:30 261 0 gusting 3 11.6
2020-Jan-25 12:20 267 2 gusting 3 11.6
2020-Jan-25 12:10 261 1 gusting 6 11.7
2020-Jan-25 12:00 284 5 gusting 6 11.9
2020-Jan-25 11:50 273 1 gusting 3 12.1
2020-Jan-25 11:40 279 2 gusting 5 12.3
2020-Jan-25 11:30 278 3 gusting 5 12.5
2020-Jan-25 11:20 278 2 gusting 4 12.6
2020-Jan-25 11:10 276 2 gusting 3 12.7
2020-Jan-25 11:00 280 0 gusting 4 12.8
2020-Jan-25 10:50 270 1 gusting 5 13.0
2020-Jan-25 10:40 283 1 gusting 6 13.3
2020-Jan-25 10:30 273 1 gusting 5 13.6
2020-Jan-25 10:20 279 0 gusting 3 13.7
2020-Jan-25 10:10 290 0 gusting 6 13.7
2020-Jan-25 10:00 304 1 gusting 7 14.0
2020-Jan-25 09:50 277 1 gusting 7 14.2
2020-Jan-25 09:40 257 2 gusting 6 14.5
2020-Jan-25 09:30 286 6 gusting 7 14.7
2020-Jan-25 09:20 271 2 gusting 10 14.8
2020-Jan-25 09:10 284 5 gusting 7 15.1
2020-Jan-25 08:50 269 1 gusting 7 15.3
2020-Jan-25 08:40 272 3 gusting 7 15.5
2020-Jan-25 08:30 257 4 gusting 7 15.7
2020-Jan-25 08:20 300 2 gusting 6 15.9
2020-Jan-25 08:10 273 5 gusting 7 16.0
2020-Jan-25 08:00 260 1 gusting 5 16.1
2020-Jan-25 07:50 279 0 gusting 3 16.1
2020-Jan-25 07:40 273 0 gusting 5 16.2
2020-Jan-25 07:30 270 0 gusting 5 16.3
2020-Jan-25 07:20 271 0 gusting 6 16.4
2020-Jan-25 07:10 248 1 gusting 4 16.6
2020-Jan-25 07:00 243 1 gusting 3 16.6
2020-Jan-25 06:40 243 0 gusting 3 16.7
2020-Jan-25 06:30 275 0 gusting 7 16.8
2020-Jan-25 06:20 264 2 gusting 6 17.0
2020-Jan-25 06:00 260 5 gusting 6 17.2
2020-Jan-25 05:40 260 2 gusting 9 17.3
2020-Jan-25 05:30 262 2 gusting 9 17.4
2020-Jan-25 05:20 246 3 gusting 8 17.3
2020-Jan-25 05:00 208 5 gusting 7 17.2
2020-Jan-25 04:50 217 3 gusting 6 17.3
2020-Jan-25 04:40 219 3 gusting 4 17.4
2020-Jan-25 04:30 216 2 gusting 5 17.5
2020-Jan-25 04:20 211 2 gusting 5 17.6
2020-Jan-25 04:10 216 4 gusting 5 17.7
2020-Jan-25 04:00 250 2 gusting 6 17.7
2020-Jan-25 03:50 229 4 gusting 5 17.7
2020-Jan-25 03:40 228 2 gusting 6 17.8
2020-Jan-25 03:30 217 3 gusting 6 17.7
2020-Jan-25 03:20 213 1 gusting 4 17.8
2020-Jan-25 03:10 214 2 gusting 3 17.8
2020-Jan-25 03:00 238 2 gusting 3 17.8
2020-Jan-25 02:50 240 0 gusting 4 17.9
2020-Jan-25 02:40 248 1 gusting 4 17.9
2020-Jan-25 02:30 216 1 gusting 3 17.9
2020-Jan-25 02:20 212 0 gusting 5 17.9
2020-Jan-25 02:10 231 2 gusting 4 17.8
2020-Jan-25 02:00 232 1 gusting 5 17.8
2020-Jan-25 01:50 228 2 gusting 5 17.8
2020-Jan-25 01:40 214 1 gusting 3 17.8
2020-Jan-25 01:30 217 0 gusting 3 17.8
2020-Jan-25 01:20 188 1 gusting 4 17.9
2020-Jan-25 01:10 163 3 gusting 4 18.0
2020-Jan-25 01:00 159 1 gusting 3 18.0
2020-Jan-25 00:50 155 0 gusting 1 18.1
2020-Jan-25 00:40 155 0 gusting 1 18.2
2020-Jan-25 00:30 155 0 gusting 2 18.4
2020-Jan-25 00:20 18.4
2020-Jan-25 00:10 155 1 gusting 2 18.6
2020-Jan-25 00:00 155 1 gusting 2 18.6
2020-Jan-24 23:50 155 0 gusting 2 18.6
2020-Jan-24 23:40 18.7
2020-Jan-24 23:30 153 2 gusting 5 18.7
2020-Jan-24 23:20 208 1 gusting 2 18.9
2020-Jan-24 23:10 19.1
2020-Jan-24 23:00 208 0 gusting 2 19.3
2020-Jan-24 22:50 19.4
2020-Jan-24 22:40 210 0 gusting 2 19.4
2020-Jan-24 22:30 211 0 gusting 1 19.4
2020-Jan-24 22:20 19.5
2020-Jan-24 22:10 19.5
2020-Jan-24 22:00 19.7
2020-Jan-24 21:50 19.8
2020-Jan-24 21:40 212 1 gusting 3 19.4
2020-Jan-24 21:30 223 1 gusting 3 19.3
2020-Jan-24 21:20 186 0 gusting 10 19.4
2020-Jan-24 21:10 146 3 gusting 8 19.5
2020-Jan-24 21:00 128 6 gusting 12 19.4
2020-Jan-24 20:50 181 3 gusting 11 19.5
2020-Jan-24 20:40 190 2 gusting 10 19.6
2020-Jan-24 20:30 190 6 gusting 13 19.7
2020-Jan-24 20:20 144 4 gusting 14 19.9
2020-Jan-24 20:10 177 5 gusting 12 20.2
2020-Jan-24 20:00 178 6 gusting 11 20.4
2020-Jan-24 19:50 178 1 gusting 11 20.4
2020-Jan-24 19:40 136 6 gusting 10 20.9
2020-Jan-24 19:30 103 6 gusting 13 21.6
2020-Jan-24 19:20 167 5 gusting 11 21.7
2020-Jan-24 19:10 126 6 gusting 12 22.3
2020-Jan-24 19:00 128 2 gusting 9 22.4
2020-Jan-24 18:50 154 6 gusting 10 22.5
2020-Jan-24 18:40 163 5 gusting 11 22.5
2020-Jan-24 18:30 137 6 gusting 10 22.8
2020-Jan-24 18:20 130 1 gusting 8 22.2
2020-Jan-24 18:10 196 0 gusting 6 21.6
2020-Jan-24 18:00 144 3 gusting 10 21.4
2020-Jan-24 17:50 125 0 gusting 7 21.2
2020-Jan-24 17:40 200 3 gusting 8 21.4
2020-Jan-24 17:30 153 3 gusting 11 21.1
2020-Jan-24 17:20 184 2 gusting 12 20.9
2020-Jan-24 17:10 173 5 gusting 13 20.9
2020-Jan-24 17:00 179 7 gusting 13 21.2
2020-Jan-24 16:50 155 6 gusting 13 21.2
2020-Jan-24 16:40 180 5 gusting 14 21.2
2020-Jan-24 16:30 125 7 gusting 11 21.6
2020-Jan-24 16:20 169 5 gusting 13 21.3
2020-Jan-24 16:10 134 6 gusting 9 21.4
2020-Jan-24 16:00 143 9 gusting 9 21.8
2020-Jan-24 15:50 142 4 gusting 10 21.4
2020-Jan-24 15:40 190 5 gusting 10 20.7
2020-Jan-24 15:30 134 7 gusting 9 20.0
2020-Jan-24 15:20 174 6 gusting 9 19.7
2020-Jan-24 15:10 196 7 gusting 12 19.6
2020-Jan-24 15:00 192 5 gusting 8 19.3
2020-Jan-24 14:50 215 2 gusting 9 19.2
2020-Jan-24 14:40 157 2 gusting 7 18.7
2020-Jan-24 14:30 171 1 gusting 8 17.9
2020-Jan-24 14:20 153 4 gusting 8 17.3
2020-Jan-24 14:10 140 2 gusting 6 16.6
2020-Jan-24 14:00 142 4 gusting 6 16.3
2020-Jan-24 13:20 16.1
2020-Jan-24 13:10 15.9
2020-Jan-24 13:00 15.8
2020-Jan-24 12:50 15.8
2020-Jan-24 12:40 15.8
2020-Jan-24 12:30 15.7
2020-Jan-24 12:20 15.7
2020-Jan-24 12:10 15.7
2020-Jan-24 12:00 128 1 gusting 3 15.6
2020-Jan-24 11:50 126 1 gusting 4 15.3
2020-Jan-24 11:40 14.9
2020-Jan-24 11:30 14.8
2020-Jan-24 11:20 14.7
2020-Jan-24 11:10 14.7
2020-Jan-24 11:00 14.6
2020-Jan-24 10:50 14.6
2020-Jan-24 10:40 14.6
2020-Jan-24 10:30 14.6
2020-Jan-24 10:20 020 0 gusting 0 14.6
2020-Jan-24 10:10 020 0 gusting 2 14.6
2020-Jan-24 10:00 14.6
2020-Jan-24 09:50 14.6
2020-Jan-24 09:40 14.6
2020-Jan-24 09:30 14.6
2020-Jan-24 09:20 14.6
2020-Jan-24 09:10 14.6
2020-Jan-24 09:00 14.5
2020-Jan-24 08:50 14.5
2020-Jan-24 08:40 14.5
2020-Jan-24 08:30 14.5
2020-Jan-24 08:20 020 0 gusting 1 14.4
2020-Jan-24 08:10 14.4
2020-Jan-24 08:00 14.4
2020-Jan-24 07:50 14.4
2020-Jan-24 07:40 14.4
2020-Jan-24 07:30 14.3
2020-Jan-24 07:20 14.3
2020-Jan-24 07:10 020 0 gusting 1 14.3
2020-Jan-24 07:00 14.3
2020-Jan-24 06:50 14.3
2020-Jan-24 06:40 14.3
2020-Jan-24 06:30 14.3
2020-Jan-24 06:20 020 0 gusting 0 14.2
2020-Jan-24 06:10 14.3
2020-Jan-24 06:00 14.3
2020-Jan-24 05:50 020 1 gusting 1 14.2
2020-Jan-24 05:40 14.1
2020-Jan-24 05:30 14.1
2020-Jan-24 05:20 14.1
2020-Jan-24 05:10 13.9
2020-Jan-24 05:00 13.9
2020-Jan-24 04:50 14.0
2020-Jan-24 04:40 14.1
2020-Jan-24 04:30 14.1
2020-Jan-24 04:20 14.2
2020-Jan-24 04:10 14.4
2020-Jan-24 04:00 14.6
2020-Jan-24 03:50 020 0 gusting 2 14.6
2020-Jan-24 03:40 020 1 gusting 4 14.7
2020-Jan-24 03:30 020 0 gusting 2 14.8
2020-Jan-24 03:20 024 1 gusting 5 14.8
2020-Jan-24 03:10 005 1 gusting 5 14.8
2020-Jan-24 03:00 005 3 gusting 4 14.8
2020-Jan-24 02:50 349 1 gusting 7 14.8
2020-Jan-24 02:40 005 2 gusting 6 15.0
2020-Jan-24 02:30 351 3 gusting 6 15.0
2020-Jan-24 02:20 017 3 gusting 5 14.9
2020-Jan-24 02:10 337 3 gusting 6 14.9
2020-Jan-24 01:50 355 3 gusting 9 14.9
2020-Jan-24 01:40 005 5 gusting 8 14.9
2020-Jan-24 01:30 013 3 gusting 7 14.9
2020-Jan-24 01:10 333 1 gusting 7 14.8
2020-Jan-24 01:00 355 3 gusting 7 14.8
2020-Jan-24 00:50 14.8
2020-Jan-24 00:40 355 1 gusting 7 14.8
2020-Jan-24 00:30 005 1 gusting 6 14.7
2020-Jan-24 00:20 005 2 gusting 8 14.6
2020-Jan-24 00:10 037 1 gusting 7 14.4
2020-Jan-24 00:00 327 5 gusting 5 14.3
2020-Jan-23 23:50 360 4 gusting 9 14.3
2020-Jan-23 23:40 355 3 gusting 11 14.2
2020-Jan-23 23:30 029 2 gusting 9 14.2
2020-Jan-23 23:20 355 6 gusting 7 14.2
2020-Jan-23 23:10 035 3 gusting 9 14.1
2020-Jan-23 23:00 019 3 gusting 8 14.1
2020-Jan-23 22:50 015 4 gusting 9 14.0
2020-Jan-23 22:40 347 7 gusting 10 14.0
2020-Jan-23 22:30 360 7 gusting 11 14.1
2020-Jan-23 22:20 010 4 gusting 13 13.9
2020-Jan-23 22:10 018 3 gusting 11 13.9
2020-Jan-23 22:00 005 5 gusting 11 13.9
2020-Jan-23 21:50 355 6 gusting 13 13.9
2020-Jan-23 21:40 013 4 gusting 12 14.0
2020-Jan-23 21:30 13.8
2020-Jan-23 21:20 336 5 gusting 13 13.8
2020-Jan-23 21:10 021 7 gusting 14 13.7
2020-Jan-23 21:00 022 5 gusting 13 13.9
2020-Jan-23 20:50 022 10 gusting 10 13.8
2020-Jan-23 20:40 032 4 gusting 10 13.7
2020-Jan-23 20:30 040 6 gusting 12 13.6
2020-Jan-23 20:20 010 9 gusting 13 13.6
2020-Jan-23 20:10 331 8 gusting 13 13.6
2020-Jan-23 20:00 044 3 gusting 13 13.6
2020-Jan-23 19:50 346 4 gusting 11 13.7
2020-Jan-23 19:40 040 9 gusting 15 13.8
2020-Jan-23 19:30 345 5 gusting 13 13.8
2020-Jan-23 19:20 036 10 gusting 13 13.9
2020-Jan-23 19:10 031 8 gusting 14 13.9
2020-Jan-23 19:00 010 0 gusting 14 13.8
2020-Jan-23 18:50 013 1 gusting 14 13.8
2020-Jan-23 18:40 082 2 gusting 14 13.7
2020-Jan-23 18:30 033 8 gusting 16 13.7
2020-Jan-23 18:20 047 11 gusting 15 13.7
2020-Jan-23 18:10 171 7 gusting 13 13.8
2020-Jan-23 18:00 028 8 gusting 13 13.8
2020-Jan-23 17:50 009 6 gusting 15 14.1
2020-Jan-23 17:40 015 13 gusting 15 14.2
2020-Jan-23 17:30 350 10 gusting 17 14.3
2020-Jan-23 17:20 038 6 gusting 17 14.4
2020-Jan-23 17:10 018 7 gusting 14 14.3
2020-Jan-23 17:00 355 6 gusting 14 14.2
2020-Jan-23 16:50 341 8 gusting 15 14.1
2020-Jan-23 16:40 350 8 gusting 13 14.1
2020-Jan-23 16:30 005 1 gusting 13 14.1
2020-Jan-23 16:20 005 1 gusting 13 13.9
2020-Jan-23 16:10 360 3 gusting 13 13.9
2020-Jan-23 16:00 019 8 gusting 13 14.2
2020-Jan-23 15:50 053 8 gusting 13 14.1
2020-Jan-23 15:40 010 6 gusting 11 14.3
2020-Jan-23 15:30 288 6 gusting 11 14.7
2020-Jan-23 15:20 035 4 gusting 12 14.8
2020-Jan-23 15:10 009 3 gusting 11 14.7
2020-Jan-23 15:00 016 2 gusting 14 14.6